Date String (YYYY-MM-DD hh:mm:ss) UTC,Instrument flags,Ambient pressure (hPa),Sample flow (lpm),Bypass flow (lpm),Sample temperature (°C),Ambient temperature (°C),ASC tube jacket temperature (°C),LED temperature (°C),Box temperature (°C),Sample RH (%),Span deviation,Mass concentration (μg/m³),Mass concentration (μg/m³),Mass concentration (μg/m³)
DateTimeUTC,F1_M11,P_M11,Q1_M11,Q2_M11,T1_M11,T2_M11,T3_M11,T4_M11,T5_M11,U1_M11,ZSPAN_M11,X0_M11,X2_M11,X1_M11
2021-12-19 15:00:00,,0824.7,4.99,0.00,23.0,22.8,00.0,31.8,24.9,05.3,0000.0,0009.02,0003.33,0002.68
2021-12-19 15:01:00,,0824.6,5.01,0.00,23.0,22.7,00.0,31.8,24.9,05.3,0000.0,0008.73,0003.32,0002.68
2021-12-19 15:02:00,,0824.7,5.00,0.00,23.0,22.7,00.0,31.8,24.8,05.3,0000.0,0008.35,0003.29,0002.63
2021-12-19 15:03:00,,0824.6,4.99,0.00,23.0,22.6,00.0,31.8,24.9,05.4,0000.0,0008.34,0003.29,0002.64
2021-12-19 15:04:00,,0824.6,4.99,0.00,23.0,22.6,00.0,31.8,24.9,05.4,0000.0,0008.06,0003.26,0002.65
2021-12-19 15:05:00,,0824.6,5.01,0.00,23.0,22.5,00.0,31.9,24.8,05.4,0000.0,0007.50,0003.23,0002.63
2021-12-19 15:06:00,,0824.7,4.98,0.00,23.0,22.5,00.0,31.9,24.8,05.1,0000.0,0006.80,0003.11,0002.49
2021-12-19 15:07:00,,0824.7,5.00,0.00,23.0,22.5,00.0,31.9,24.9,05.3,0000.0,0006.45,0002.92,0002.31
2021-12-19 15:08:00,,0824.6,5.01,0.00,23.0,22.5,00.0,31.9,24.8,05.1,0000.0,0006.11,0002.77,0002.19
2021-12-19 15:09:00,,0824.6,4.99,0.00,23.0,22.5,00.0,31.9,24.9,05.1,0000.0,0005.97,0002.67,0002.10
2021-12-19 15:10:00,,0824.6,5.02,0.00,23.1,22.5,00.0,31.9,24.9,05.0,0000.0,0005.09,0002.59,0001.99
2021-12-19 15:11:00,,0824.7,5.00,0.00,23.1,22.5,00.0,31.9,24.9,05.1,0000.0,0004.53,0002.43,0001.89
2021-12-19 15:12:00,,0824.7,4.99,0.00,23.0,22.4,00.0,31.9,24.8,05.4,0000.0,0004.65,0002.41,0001.86
2021-12-19 15:13:00,,0824.7,5.01,0.00,23.0,22.4,00.0,31.9,24.7,05.5,0000.0,0004.10,0002.38,0001.83
2021-12-19 15:14:00,,0824.6,5.00,0.00,23.0,22.4,00.0,31.9,24.7,05.4,0000.0,0004.20,0002.38,0001.80
2021-12-19 15:15:00,,0824.7,4.99,0.00,23.0,22.3,00.0,31.9,24.7,05.5,0000.0,0004.41,0002.40,0001.77
2021-12-19 15:16:00,,0824.8,5.00,0.00,23.0,22.3,00.0,31.9,24.7,05.5,0000.0,0004.36,0002.37,0001.75
2021-12-19 15:17:00,,0824.9,5.00,0.00,23.0,22.3,00.0,31.9,24.7,05.6,0000.0,0004.35,0002.35,0001.75
2021-12-19 15:18:00,,0824.8,5.01,0.00,23.0,22.3,00.0,31.9,24.7,05.6,0000.0,0004.16,0002.31,0001.76
2021-12-19 15:19:00,,0824.8,4.99,0.00,23.0,22.3,00.0,31.9,24.8,05.6,0000.0,0003.99,0002.27,0001.76
2021-12-19 15:20:00,,0824.8,5.00,0.00,23.0,22.4,00.0,31.9,24.8,05.6,0000.0,0004.33,0002.37,0001.84
2021-12-19 15:21:00,,0824.8,5.01,0.00,23.0,22.4,00.0,31.9,24.8,05.6,0000.0,0004.44,0002.46,0001.92
2021-12-19 15:22:00,,0824.8,4.99,0.00,23.0,22.4,00.0,32.0,24.9,05.5,0000.0,0004.90,0002.53,0001.97
2021-12-19 15:23:00,,0824.8,5.02,0.00,23.1,22.4,00.0,32.0,24.9,05.5,0000.0,0004.85,0002.52,0001.97
2021-12-19 15:24:00,,0824.8,4.99,0.00,23.1,22.5,00.0,32.0,24.9,05.4,0000.0,0004.52,0002.44,0001.94
2021-12-19 15:25:00,,0824.8,5.01,0.00,23.1,22.5,00.0,32.0,24.9,05.4,0000.0,0004.23,0002.37,0001.94
2021-12-19 15:26:00,,0824.7,5.00,0.00,23.1,22.5,00.0,32.0,24.9,05.4,0000.0,0003.98,0002.33,0001.94
2021-12-19 15:27:00,,0824.7,5.01,0.00,23.1,22.5,00.0,32.0,24.9,05.4,0000.0,0004.12,0002.34,0001.92
2021-12-19 15:28:00,,0824.7,5.00,0.00,23.2,22.6,00.0,32.0,25.0,05.4,0000.0,0004.81,0002.38,0001.91
2021-12-19 15:29:00,,0824.6,5.00,0.00,23.2,22.6,00.0,32.0,25.0,05.5,0000.0,0006.45,0002.43,0001.91
2021-12-19 15:30:00,,0824.7,5.00,0.00,23.2,22.6,00.0,32.1,25.0,05.4,0000.0,0007.66,0002.46,0001.91
2021-12-19 15:31:00,,0824.7,5.00,0.00,23.2,22.6,00.0,32.1,25.0,05.4,0000.0,0007.55,0002.37,0001.84
2021-12-19 15:32:00,,0824.6,5.00,0.00,23.2,22.6,00.0,32.1,25.0,05.7,0000.0,0007.39,0002.29,0001.77
2021-12-19 15:33:00,,0824.6,5.01,0.00,23.3,22.6,00.0,32.1,25.1,05.8,0000.0,0007.13,0002.30,0001.77
2021-12-19 15:34:00,,0824.6,4.99,0.00,23.3,22.6,00.0,32.1,25.1,05.9,0000.0,0007.24,0002.40,0001.81
2021-12-19 15:35:00,,0824.6,5.01,0.00,23.3,22.6,00.0,32.1,25.1,06.0,0000.0,0008.19,0002.58,0001.89
2021-12-19 15:36:00,,0824.7,4.99,0.00,23.3,22.6,00.0,32.1,25.1,05.9,0000.0,0008.42,0002.70,0001.94
2021-12-19 15:37:00,,0824.7,5.00,0.00,23.3,22.7,00.0,32.2,25.1,05.6,0000.0,0008.70,0002.79,0001.97
2021-12-19 15:38:00,,0824.6,5.01,0.00,23.3,22.7,00.0,32.2,25.1,05.8,0000.0,0009.36,0002.87,0002.02
2021-12-19 15:39:00,,0824.7,5.00,0.00,23.3,22.7,00.0,32.2,25.1,05.5,0000.0,0009.14,0002.86,0002.05
2021-12-19 15:40:00,,0824.7,5.00,0.00,23.3,22.7,00.0,32.2,25.1,05.3,0000.0,0008.34,0002.93,0002.06
2021-12-19 15:41:00,,0824.7,5.00,0.00,23.3,22.7,00.0,32.2,25.2,05.4,0000.0,0007.72,0002.95,0002.07
2021-12-19 15:42:00,,0824.6,5.00,0.00,23.4,22.7,00.0,32.2,25.1,05.6,0000.0,0007.76,0002.94,0002.08
2021-12-19 15:43:00,,0824.6,5.00,0.00,23.4,22.7,00.0,32.2,25.1,05.6,0000.0,0008.08,0002.92,0002.09
2021-12-19 15:44:00,,0824.6,5.00,0.00,23.4,22.7,00.0,32.2,25.1,05.6,0000.0,0008.02,0002.86,0002.05
2021-12-19 15:45:00,,0824.6,4.99,0.00,23.4,22.7,00.0,32.3,25.2,05.5,0000.0,0007.87,0002.74,0002.01
2021-12-19 15:46:00,,0824.7,5.01,0.00,23.4,22.8,00.0,32.3,25.2,05.6,0000.0,0007.23,0002.57,0001.94
2021-12-19 15:47:00,,0824.7,4.99,0.00,23.4,22.8,00.0,32.3,25.2,05.7,0000.0,0007.20,0002.49,0001.91
2021-12-19 15:48:00,,0824.7,5.01,0.00,23.4,22.8,00.0,32.3,25.2,05.6,0000.0,0006.82,0002.44,0001.88
2021-12-19 15:49:00,,0824.7,4.98,0.00,23.4,22.8,00.0,32.3,25.3,05.5,0000.0,0005.64,0002.35,0001.85
2021-12-19 15:50:00,,0824.6,5.01,0.00,23.5,22.8,00.0,32.3,25.3,05.4,0000.0,0005.22,0002.32,0001.82
2021-12-19 15:51:00,,0824.6,4.99,0.00,23.5,22.8,00.0,32.3,25.3,05.5,0000.0,0004.97,0002.24,0001.81
2021-12-19 15:52:00,,0824.5,5.01,0.00,23.5,22.8,00.0,32.3,25.3,05.5,0000.0,0004.81,0002.19,0001.80
2021-12-19 15:53:00,,0824.6,5.01,0.00,23.5,22.9,00.0,32.4,25.3,05.6,0000.0,0004.75,0002.22,0001.80
2021-12-19 15:54:00,,0824.7,4.99,0.00,23.5,22.9,00.0,32.4,25.3,05.6,0000.0,0003.94,0002.16,0001.78
2021-12-19 15:55:00,,0824.6,5.02,0.00,23.5,22.9,00.0,32.4,25.4,05.4,0000.0,0003.99,0002.15,0001.75
2021-12-19 15:56:00,,0824.6,5.00,0.00,23.6,23.0,00.0,32.4,25.4,05.5,0000.0,0004.05,0002.14,0001.72
2021-12-19 15:57:00,,0824.6,4.99,0.00,23.6,23.0,00.0,32.4,25.4,05.6,0000.0,0003.49,0002.12,0001.70
2021-12-19 15:58:00,,0824.6,5.01,0.00,23.6,23.0,00.0,32.5,25.4,05.6,0000.0,0003.24,0002.10,0001.70
2021-12-19 15:59:00,,0824.6,4.99,0.00,23.6,23.1,00.0,32.5,25.5,05.6,0000.0,0003.25,0002.12,0001.68
